Location: *
(41.7492°S, 135.4150°W)
Time: 23:49:45
(UTC+00:00)

ITAMSAT 1 - Pass Details

Date: 27 June 2022
Orbit: 784 x 795 km, 98.9° (Epoch: 09 August)

Event Time Altitude Azimuth Distance (km) Brightness Sun altitude
Rises 15:32:59 0° 29° (NNE) 3,294 11.8 -10.3°
Reaches altitude 10° 15:35:21 10° 34° (NNE) 2,372 11.1 -9.9°
Maximum altitude 15:40:26 54° 109° (ESE) 979 8.5 -9.1°
Drops below altitude 10° 15:45:35 10° 185° (S) 2,396 9.9 -8.2°
Sets 15:47:58 0° 189° (S) 3,332 10.6 -7.8°
